NOAA 16 DEB, 41229

Orbit data source: Space-Track

NOAA 16 DEB, 41229 is space debris in SSO originally from a launch on Thu, 21 Sep 2000 UTC launched from the Air Force Western Test Range (AFWTR). Debris objects in space refer to the collection of defunct objects orbiting the Earth. Examples of debris include non-operational satellites, rocket bodies, and fragments generated from explosions, collisions, or faulty payload assembly.

Loading next visibility...
Identifier
41229, 2000-055EJ
Orbit
SSO
Country
Flag of USUS
Related business
Manufacturer
Unknown
Mission
Spacecraft
Bus & Motor
Unknown
Mass
Unknown
Launch date (UTC)
2000-09-21 (26 years ago)
Launch vehicle
Unknown
Launch site
Air Force Western Test Range (AFWTR)
Object type
Payload
Rocket body
Debris
Shape & HBR
Unknown shape, 0.1 m
Radar Cross Section
Medium (>0.1 m² and <1 m²)

Expand to show TLE details & history
Last TLE update: 3 days ago

TLE from 3 days ago
0 NOAA 16 DEB
1 41229U 00055EJ  26233.60493920  .00003733  00000-0  15851-2 0  9995
2 41229  98.9217 292.0747 0058974  57.9642 302.7247 14.24987136548976
Epoch: 2026-08-21T14:31Z
TLE epoch observation values (Epoch: 2026-08-21T14:31:06.746Z)
Latitude
-0.00002°
Longitude
104.36929°
Altitude
788.711 km
Speed
7.471 km/s
True Right ascension
19h 28m 17s
True Declination
0° 00' 00"
Sunlit
Object was in full shadow at epoch
Visualization orbit readout
Latitude
Unknown
Longitude
Unknown
Altitude
Unknown
Speed
Unknown
Apparent Right ascension
Unknown
Apparent Declination
Unknown
Sunlit
N/A
Visualization observer readout
Local Sidereal Time
21:05:52
Azimuth
Unknown
Elevation
Unknown
Doppler factor
Unknown
Orbital elements
Apogee altitude
848.064 km
Perigee altitude
763.332 km
Semi-major axis
7,183.835 km
Eccentricity
0.0059
Inclination
98.9217°
RAAN
292.0747°
Arg. of periapsis
57.9642°
True anomaly
302.15391°
Mean anomaly
302.7247°
Eccentric anomaly
302.43953°
Mean motion
3.56458 °/min
Orbital period
100.99 mins
BSTAR
0.0015851
Loading maneuver chart data...
Computing Atmospheric mass density...
Loading historical data...
Loading historical data...
Loading historical data...
Loading historical data...
Loading historical data...
Loading historical data...
Loading historical data...

Documentation

Showing up to 5 results
|